Regional Weather Roundup
Issued by NWS

Home | Current Version | Previous Version | Graphics & Text | Print | Product List | Glossary On
Versions: 1 2 3 4 5 6 7 8 9 10 11 12 13 14 15 16 17 18 19 20 21 22 23 24 25 26 27 28 29 30 31 32 33 34 35 36 37 38 39 40 41 42 43 44 45 46 47 48 49 50
188
ASUS44 KJAN 221903
RWRMS

MISSISSIPPI HOURLY WEATHER ROUNDUP
NATIONAL WEATHER SERVICE JACKSON MS
200 PM CDT TUE APR 22 2014

NOTE: "FAIR: INDICATES FEW OR NO CLOUDS BELOW 12,000 FEET WITH NO
SIGNIFICANT WEATHER AND/OR OBSTRUCTIONS TO VISIBILITY.

MSZ001>002-007>008-010>013-018>021-025>028-034>036-222000-
NORTHWEST MISSISSIPPI

CITY           SKY/WX    TMP DP  RH WIND       PRES   REMARKS
CLARKSDALE       N/A     73  63  68 N13G20    29.95F
CLEVELAND      FAIR      74  66  76 N10       29.93F
GREENWOOD      PTSUNNY   75  62  64 VRB6      29.92F
GREENVILLE     CLOUDY    74  64  71 N12       29.94S
GRENADA        FAIR      73  59  60 N5        29.92F
OLIVE BRANCH   PTSUNNY   70  63  78 N9        29.94F
OXFORD         FAIR      73  57  56 N5        29.93F
TUNICA         MOCLDY    70  61  73 N9        29.96S
$$

MSZ003>006-009-014>017-022>024-029>033-037>039-222000-
NORTHEAST MISSISSIPPI

CITY           SKY/WX    TMP DP  RH WIND       PRES   REMARKS
BELMONT        LGT RAIN  67  62  85 CALM      29.91S
COLUMBUS AFB   CLOUDY    72  61  69 VRB2      29.91F
CORINTH        MOCLDY    73  59  60 N7        29.91F
GOLDN TRIANGLE CLOUDY    70  61  73 NW7       29.95S
STARKVILLE     CLOUDY    70  61  73 CALM      29.92S
TUPELO         PTSUNNY   73  60  63 CALM      29.90F
$$

MSZ040-058-222000-
CENTRAL MISSISSIPPI

CITY           SKY/WX    TMP DP  RH WIND       PRES   REMARKS
JACKSON INTL   PTSUNNY   74  63  68 N6        29.93F
JACKSON HAWKNS PTSUNNY   73  60  63 N9G26     29.93F
MERIDIAN KEY   LGT RAIN  65  63  93 CALM      29.94R FOG
MERIDIAN NAS   CLOUDY    66  63  88 W5        29.93F
RAYMOND        MOCLDY    72  66  83 N3        29.94F
VICKSBURG      PTSUNNY   78  63  59 N8        29.94F
$$

MSZ059>079-222000-
SOUTH MISSISSIPPI

CITY           SKY/WX    TMP DP  RH WIND       PRES   REMARKS
BROOKHAVEN     MOCLDY    72  63  73 W8        29.95F
HATTIESBURG    CLOUDY    70  64  81 W3        29.94F
MCCOMB         CLOUDY    73  62  68 NW10      29.93F
NATCHEZ        PTSUNNY   72  63  73 N6        29.95F
PINE BELT      CLOUDY    70  63  78 SW6       29.93F
$$

MSZ080>082-222000-
COASTAL MISSISSIPPI

CITY           SKY/WX    TMP DP  RH WIND       PRES   REMARKS
BAY ST LOUIS   PTSUNNY   72  63  73 W8        29.93F
BILOXI         CLOUDY    74  64  70 SW9       29.92F
PASCAGOULA     MOSUNNY   78  65  63 SW10      29.91F
GULFPORT       CLOUDY    75  64  68 NW12      29.93S
$$



USA.gov is the U.S. government's official web portal to all federal, state and local government web resources and services.